WGS F5 (USA 243)

Last updated on Thu Oct 30 2025 00:02:49 GMT+0000 (Coordinated Universal Time)

1 39168U 13024A 25302.46067764 -.00000274 00000+0 00000+0 0 9991 2 39168 0.0169 229.5510 0000283 238.0885 43.7887 1.00271456 44861
UTC large
Height (km)
Speed (km/s)
/
Latitude / Longitude
Inclination (degrees)
Orbital Period (minutes)
Azimuth
Elevation
Range (km)
Doppler Factor

Next 0 passes for location: London (51.5072 / 0.1276)

Sorry there are no passes over London.